Regional Weather Roundup
Issued by NWS

Home | Current Version | Previous Version | Text Only | Print | Product List | Glossary On
Versions: 1 2 3 4 5 6 7 8 9 10 11 12 13 14 15 16 17 18 19 20 21 22 23 24 25 26 27 28 29 30 31 32 33 34 35 36 37 38 39 40 41 42 43 44 45 46 47 48 49 50
000
ASUS43 KDMX 310307
RWRIA

WEATHER ROUNDUP FOR IOWA
NATIONAL WEATHER SERVICE DES MOINES IA
1000 PM CDT THU JUL 30 2015

NOTE: "FAIR" INDICATES FEW OR NO CLOUDS BELOW 12,000 FEET WITH NO
SIGNIFICANT WEATHER AND/OR OBSTRUCTIONS TO VISIBILITY.

* - THESE STATIONS ARE NOT NWS STATIONS...THUS NOT UNDER NWS
QUALITY CONTROL.  THEY ALSO DO NOT REPORT WEATHER SUCH
AS PRECIPITATION OR FOG.

IAZ001>003-012>014-020>022-031>034-043>046-310400-
   NORTHWEST IOWA

CITY           SKY/WX    TMP DP  RH WIND       PRES   REMARKS
CARROLL *      CLEAR     70  66  88 W5        30.11R
CHEROKEE *     CLEAR     70  70 100 CALM      30.11R
DENISON *      CLEAR     70  66  88 SE3       30.11R
LE MARS *      CLEAR     70  70 100 CALM      30.12R
ORANGE CITY *  CLEAR     73  64  73 CALM      30.12R
SHELDON *      CLEAR     68  66  94 CALM      30.10R
SIOUX CITY     CLEAR     76  70  82 S3        30.11R
SPENCER        CLEAR     70  66  87 W8        30.11R
STORM LAKE *   CLEAR     72  68  88 W5        30.13R
$$

IAZ055>058-069>071-079>083-090>094-310400-
   SOUTHWEST IOWA

CITY           SKY/WX    TMP DP  RH WIND       PRES   REMARKS
ATLANTIC *     CLEAR     72  70  94 CALM      30.13R
AUDUBON *      CLEAR     68  64  88 SW3       30.14R
CLARINDA *     CLEAR     72  72 100 CALM      30.15R
COUNCIL BLFS *   N/A     77  66  69 CALM      30.13R
CRESTON *      CLEAR     73  66  78 SW5       30.15R
HARLAN  *      CLEAR     70  70 100 CALM      30.16R
LAMONI         CLEAR     75  67  76 SW6       30.14R
RED OAK *      CLEAR     72  70  94 CALM      30.13R
SHENANDOAH *     N/A     73  70  88 CALM      30.14R
$$

IAZ047>049-059>061-072>074-084-310400-
   CENTRAL IOWA

CITY           SKY/WX    TMP DP  RH WIND       PRES   REMARKS
AMES           CLEAR     69  66  90 W6        30.09R
ANKENY *       CLEAR     72  64  78 CALM      30.10R
CHARITON *     CLEAR     73  66  78 SW6       30.12R
DES MOINES     CLEAR     76  65  68 SW7       30.10R
GRINNELL*      CLEAR     72  64  78 SW7       30.11R
KNOXVILLE *    CLEAR     73  66  78 SW6       30.10R
MARSHALLTOWN   CLEAR     71  67  87 SW6       30.08R
PELLA *        CLEAR     73  68  83 W3        30.11R
PERRY *          N/A     72  68  88 W5        30.11R
$$

IAZ004>006-015-016-023>025-035-036-310400-
   NORTH CENTRAL IOWA

CITY           SKY/WX    TMP DP  RH WIND       PRES   REMARKS
ALGONA *       CLEAR     70  66  88 W6        30.10R
CLARION *      CLEAR     68  66  94 SW5       30.09R
ESTHERVILLE    CLEAR     68  65  90 SW7       30.09R
FORT DODGE *   CLEAR     70  64  83 CALM      30.11R
MASON CITY     CLEAR     71  65  81 SW5       30.09R
FOREST CITY *  CLEAR     70  64  83 CALM      30.09R
IOWA FALLS *     N/A     70  66  88 SW3       30.10R
$$

IAZ007>011-017>019-026>030-037>042-050>054-066-310400-
   NORTHEAST IOWA

CITY           SKY/WX    TMP DP  RH WIND       PRES   REMARKS
CEDAR RAPIDS   CLEAR     70  68  93 W3        30.08R
CHARLES CITY * CLEAR     68  66  94 SW5       30.08R
CLINTON *      CLEAR     68  64  88 W6        30.09R
DECORAH *      CLEAR     70  63  78 SW3       30.06R
DUBUQUE        CLEAR     68  61  78 W3        30.07R
MONTICELLO *   CLEAR     66  64  94 CALM      30.07R
OELWEIN *        N/A     70  64  83 SW5       30.09R
WATERLOO       CLEAR     74  67  78 SW3       30.07R
$$

IAZ064-065-067-068-078-310400-
   EAST CENTRAL IOWA

CITY           SKY/WX    TMP DP  RH WIND       PRES   REMARKS
DAVENPORT      CLEAR     70  67  90 W5        30.08R
IOWA CITY      CLEAR     73  68  84 W5        30.09R
MT. PLEASANT * CLEAR     73  63  68 W5        30.10R
MUSCATINE *    CLEAR     73  66  78 W3        30.08R
QUAD CITIES    CLEAR     73  66  78 SW5       30.06R
$$

IAZ062-063-075>077-085>089-095>099-310400-
   SOUTHEAST IOWA

CITY           SKY/WX    TMP DP  RH WIND       PRES   REMARKS
BURLINGTON     CLEAR     74  65  73 W5        30.09R
FAIRFIELD *    CLEAR     72  64  78 W6        30.10R
FORT MADISON * CLEAR     73  66  78 CALM      30.11R
KEOKUK *       CLEAR     75  68  78 W5        30.09R
OSKALOOSA *      N/A     68  64  88 W5        30.11R
CENTERVILLE *  CLEAR     72  66  83 SW6       30.14R
OTTUMWA        CLEAR     69  65  86 W7        30.09R
WASHINGTON *   CLEAR     70  68  94 W6        30.10R
$$

ABBREVIATIONS USED IN REMARKS
   TC - TEMPERATURES IN CELSIUS
  WCI - WIND CHILL INDEX
   HX - HEAT INDEX
  VSB - VISIBILITY
$$




USA.gov is the U.S. government's official web portal to all federal, state and local government web resources and services.